#timestamp,LO_Frequency,Hit,StdDev 
1558490415.5,286047007.8,P
1558490435.3,286047010.4,P
1558490455.2,286047010.5,Y
1558490475.9,286047001.5,P
1558490495.7,286047003.4,N
1558490515.6,286047003.0,N
1558490535.4,286047005.6,N
1558490555.2,286047005.9,N
1558490575.1,286047005.5,N
1558490576.0,286047005.5,N
1558490595.8,286047007.3,Y
1558490615.7,286047002.0,P
1558490635.5,286047001.3,N
1558490655.3,286047003.4,N
1558490675.2,286047004.0,N
1558490695.0,286047003.8,N
1558490695.9,286047003.8,Y
1558490715.8,286046998.1,P
1558490735.6,286046998.1,N
1558490755.4,286046998.1,N
1558490775.3,286046998.2,N
1558490795.1,286047001.2,N
1558490815.8,286046998.1,N
1558490835.7,286046999.9,N
1558490855.5,286047002.6,N
1558490875.4,286047002.5,N
1558490895.2,286047002.1,N
1558490915.0,286047002.0,N
1558490915.9,286047002.0,N
1558490935.8,286047001.4,N
1558490955.6,286047002.1,N
1558490975.4,286047002.8,N
1558490995.3,286047002.0,N
1558491015.1,286047002.4,N
1558491035.9,286047002.2,N
1558491055.7,286047000.1,N
1558491075.5,286047002.3,N
1558491095.4,286047002.2,N
1558491115.2,286047003.9,N
1558491135.1,286047003.5,N
1558491136.0,286047003.5,N
1558491155.8,286047004.0,N
1558491175.6,286047003.1,N
1558491195.5,286047003.4,N
1558491215.3,286047005.4,N
1558491235.1,286047004.8,N
1558491255.9,286047004.7,N
1558491275.7,286047007.6,Y
1558491295.6,286047003.9,P
1558491315.4,286047005.7,P
1558491335.2,286047004.7,P
1558491355.1,286047004.5,Y
1558491356.0,286047004.5,P
1558491375.8,286047001.5,P
1558491395.7,286047001.8,N
1558491415.5,286047002.2,N
1558491435.3,286047002.8,N
1558491455.2,286047000.0,N
1558491475.0,286047002.6,N
1558491475.9,286047002.6,N
1558491495.8,286047001.3,N
1558491515.6,286047001.8,N
1558491535.4,286047001.5,N
1558491555.3,286047001.6,N
1558491575.1,286047000.1,N
1558491595.8,286047000.1,N
1558491615.7,286047000.3,N
1558491635.5,286046999.9,N
1558491655.4,286047002.2,N
1558491675.2,286047002.7,N
1558491695.0,286047001.9,N
1558491695.9,286047001.9,N
1558491715.8,286047001.8,N
1558491735.6,286047001.9,N
1558491755.4,286047001.8,N
1558491775.3,286047004.2,Y
1558491795.1,286047001.7,P
1558491815.9,286047001.3,P
1558491835.7,286047004.3,P
1558491855.5,286047002.0,N
1558491875.4,286047004.0,Y
1558491895.2,286047000.5,P
1558491915.0,286047001.1,N
1558491916.0,286047001.1,N
1558491935.8,286046998.7,N
1558491955.6,286047000.8,N
1558491975.5,286047000.7,N
1558491995.3,286047000.0,N
1558492015.1,286046999.7,N
1558492035.9,286046999.9,N
1558492055.7,286047000.6,N
1558492075.5,286046998.6,N
1558492095.4,286046998.1,N
1558492115.2,286047000.7,N
1558492135.1,286047000.5,N
1558492136.0,286047000.5,N
1558492155.8,286047000.9,N
1558492175.6,286046998.4,N
1558492195.5,286047000.6,N
1558492215.3,286046999.9,N
1558492235.1,286047000.1,N
1558492255.9,286047002.8,N
1558492275.7,286047002.0,N
1558492295.6,286047004.0,Y
1558492315.4,286047002.6,P
1558492335.2,286047002.0,N
1558492355.1,286047000.1,N
1558492356.0,286047000.1,N
1558492375.8,286047000.6,N
1558492395.7,286047000.2,N
1558492415.5,286047002.6,N
1558492435.3,286047001.9,N
1558492455.2,286047002.0,N
1558492475.9,286047001.7,N
1558492495.7,286047001.5,N
1558492515.6,286047000.4,N
1558492535.4,286046999.1,N
1558492555.3,286046995.5,Y
1558492575.1,286046992.4,P
1558492576.0,286046992.4,N
1558492595.8,286046988.6,N
1558492615.7,286046987.7,N
1558492635.5,286046985.7,Y
1558492655.3,286046996.4,P
1558492675.2,286046994.5,N
1558492695.0,286046993.4,P
1558492695.9,286046993.4,Y
1558492715.8,286046998.7,P
1558492735.6,286046999.2,N
1558492755.4,286046997.4,N
1558492775.3,286046997.6,N
1558492795.1,286046996.0,N
1558492815.8,286046994.6,Y
1558492835.7,286046986.3,P
1558492855.5,286046995.8,N
1558492875.4,286046994.2,N
1558492895.2,286046994.2,N
1558492915.0,286046995.6,N
1558492915.9,286046995.6,N
1558492935.8,286046993.3,N
1558492955.6,286046994.2,N
1558492975.4,286046993.0,N
1558492995.3,286046992.1,N
1558493015.1,286046993.3,N
1558493035.9,286046997.5,N
1558493055.7,286046996.5,N
1558493075.5,286046998.8,N
1558493095.4,286046999.9,N
1558493115.2,286046999.9,N
1558493135.0,286047001.3,N
1558493135.9,286047001.3,N
1558493155.8,286047007.6,N
1558493175.6,286047007.2,N
1558493195.5,286047007.3,N
1558493215.3,286047007.1,N
1558493235.1,286047006.4,N
1558493255.9,286047006.5,N
1558493275.7,286047008.9,N
1558493295.5,286047010.7,N
1558493315.4,286047008.0,N
1558493335.2,286047010.5,N
1558493355.1,286047010.2,N
1558493356.0,286047010.2,N
1558493375.8,286047008.1,N
1558493395.6,286047010.0,N
1558493415.5,286047012.2,N
1558493435.3,286047012.2,N
1558493455.1,286047009.7,N
1558493475.9,286047012.0,N
1558493495.7,286047011.8,N
1558493515.6,286047011.1,N
1558493535.4,286047013.8,N
1558493555.2,286047013.4,N
1558493575.1,286047010.9,N
1558493576.0,286047010.9,N
1558493595.8,286047011.4,N
1558493615.6,286047015.1,Y
1558493635.5,286047007.2,P
1558493655.3,286047005.1,P
1558493675.2,286047007.1,P
1558493695.9,286047004.5,Y
1558493715.7,286047000.0,P
1558493735.6,286047001.1,N
1558493755.4,286047002.4,N
1558493775.2,286047002.6,N
1558493795.1,286047002.3,N
1558493796.0,286047002.3,N
1558493815.8,286047001.8,N
1558493835.7,286047004.4,N
1558493855.5,286047004.3,N
1558493875.3,286047004.4,N
1558493895.2,286047003.6,N
1558493915.0,286047005.9,Y
1558493915.9,286047005.9,P
1558493935.8,286047001.8,N
1558493955.6,286047003.7,N
1558493975.4,286047003.5,N
1558493995.3,286047003.2,N
